Regional Weather Roundup
Issued by NWS Spokane, WA

Home | Current Version | Previous Version | Text Only | Print | Product List | Glossary On
Versions: 1 2 3 4 5 6 7 8 9 10 11 12 13 14 15 16 17 18 19 20 21 22 23 24 25 26 27 28 29 30 31 32 33 34 35 36 37 38 39 40 41 42 43 44 45 46 47 48 49 50
509
NZUS01 KOTX 281210
RWROTX

Eastern Washington/Northern Idaho Roundup
National Weather Service, Spokane WA
500 AM PDT TUE MAR 28 2017

Note: "fair" indicated few or no clouds below 12,000 feet with no
significant weather and/or obstructions to visibility.

...Northeast Washington and Northern Idaho Panhandle...

CITY           SKY/WX    TMP DP  RH WIND       PRES   REMARKS
Spokane Intl   CLOUDY    36  33  89 S12       30.18R
Spokane Downto MOCLDY    39  35  86 VRB3      30.21R
Coeur d Alene  MOCLDY    38  34  85 S12       30.20S
Deer Park      CLOUDY    36  33  89 S7        30.20R
Sandpoint      CLOUDY    36  34  93 S6        30.19R
Bonners Ferry  PTSUNNY   36  32  87 CALM      30.15S

...Southeast Washington and southern Idaho Panhandle...

CITY           SKY/WX    TMP DP  RH WIND       PRES   REMARKS
Walla Walla    CLOUDY    46  36  68 SW9       30.26S
Pullman/Moscow CLOUDY    37  31  78 SW5       30.24F
Lewiston       PTCLDY    37  31  78 CALM      30.25F
Lowell           N/A     39  37  92 N3        30.31S
Grangeville    FAIR      36  30  80 SW7       30.23S

...Columbia Basin...

CITY           SKY/WX    TMP DP  RH WIND       PRES   REMARKS
Ephrata        CLOUDY    38  31  76 SE8       30.16S
Moses Lake     MOCLDY    39  34  82 S8        30.18S
Pasco          CLOUDY    45  36  70 SW7       30.25S
Richland       CLOUDY    46  38  73 S7        30.24S
Hermiston      MOCLDY    44  37  76 SW9       30.26F
Pendleton      CLOUDY    41  34  76 S6        30.26S

...East Slopes Cascades...

CITY           SKY/WX    TMP DP  RH WIND       PRES   REMARKS
The Dalles     CLOUDY    46  39  76 NE3       30.30S
Yakima         CLOUDY    41  36  82 CALM      30.21S
Ellensburg     CLOUDY    42  34  73 NW8       30.18S
Wenatchee      CLOUDY    42  35  76 CALM      30.15S
Omak           CLOUDY    45  30  55 S8        30.12S
Sunnyside      CLOUDY    38  34  87 CALM      30.23S

...Southern British Columbia...

CITY           SKY/WX    TMP DP  RH WIND       PRES   REMARKS
Penticton      CLOUDY    43  36  75 S12G18    30.09R
Cranbrook      MOCLDY    37  30  75 SE8       30.08S
Osoyoos          N/A     45  34  65 S5          N/A
Creston          N/A     36  36 100 E3          N/A

...Western Montana...

CITY           SKY/WX    TMP DP  RH WIND       PRES   REMARKS
Kalispell      LGT RAIN  36  33  89 SW5       30.15S
Missoula       CLOUDY    33  32  96 W3        30.22R

...Neighboring Cities...

CITY           SKY/WX    TMP DP  RH WIND       PRES   REMARKS
Seattle        CLOUDY    45  41  86 S9        30.21F
Portland       LGT RAIN  47  40  76 S9        30.32S
Boise          PTCLDY    35  31  85 NW3       30.24R
Great Falls    CLEAR     30  23  75 S12       30.08S WCI  20
Calgary        PTCLDY    34  21  60 SW7       29.92F WCI  28



USA.gov is the U.S. government's official web portal to all federal, state and local government web resources and services.